THY110 LTFM-EGPH

Flight info

Callsign THY110
Flight time 4h 2m
Altitude 36000
Route TUDBU Q26 ETUBA DCT DEGET DCT PATAK DCT KATQA DCT HDO DCT RENEQ DCT AGPED
Aircraft A21N/M-SDE3FGHIRWY/LB1

Departure

Time 2026-04-26 09:00
Airport İstanbul Airport (LTFM)

Arrival

Time 2026-04-26 13:03
Airport Edinburgh Airport (EGPH)
Time Latitude Longitude Altitude Speed Heading
2026-04-26 08:39 41.25677 28.73603 333 ft 0 kts
2026-04-26 08:48 41.25673 28.73603 333 ft 2 kts 359°
2026-04-26 08:48 41.25658 28.73603 333 ft 2 kts
2026-04-26 08:49 41.25643 28.73603 333 ft 2 kts
2026-04-26 08:49 41.25630 28.73603 333 ft 0 kts 360°
2026-04-26 08:49 41.25618 28.73605 333 ft 2 kts 335°
2026-04-26 08:49 41.25606 28.73617 333 ft 2 kts 303°
2026-04-26 08:50 41.25601 28.73635 333 ft 0 kts 274°
2026-04-26 08:50 41.25602 28.73642 333 ft 1 kts 267°
2026-04-26 08:50 41.25602 28.73645 333 ft 0 kts 269°
2026-04-26 08:52 41.25602 28.73637 333 ft 1 kts 269°
2026-04-26 08:52 41.25601 28.73621 333 ft 2 kts 269°
2026-04-26 08:53 41.25601 28.73595 333 ft 3 kts 269°
2026-04-26 08:53 41.25600 28.73558 333 ft 4 kts 269°
2026-04-26 08:53 41.25600 28.73501 333 ft 8 kts 269°
2026-04-26 08:53 41.25599 28.73403 333 ft 12 kts 270°
2026-04-26 08:54 41.25597 28.73267 333 ft 16 kts 269°
2026-04-26 08:54 41.25561 28.73134 333 ft 15 kts 201°
2026-04-26 08:54 41.25454 28.73130 333 ft 15 kts 178°
2026-04-26 08:54 41.25350 28.73124 333 ft 13 kts 214°
2026-04-26 08:55 41.25326 28.73011 333 ft 13 kts 273°
2026-04-26 08:55 41.25330 28.72889 333 ft 13 kts 270°
2026-04-26 08:55 41.25327 28.72762 333 ft 13 kts 268°
2026-04-26 08:55 41.25324 28.72636 333 ft 13 kts 269°
2026-04-26 08:56 41.25325 28.72507 333 ft 14 kts 270°
2026-04-26 08:56 41.25324 28.72418 333 ft 14 kts 269°
2026-04-26 08:56 41.25359 28.72251 333 ft 15 kts 316°
2026-04-26 08:56 41.25458 28.72205 333 ft 15 kts 356°
2026-04-26 08:57 41.25569 28.72202 333 ft 16 kts
2026-04-26 08:57 41.25682 28.72205 333 ft 16 kts
2026-04-26 08:57 41.25798 28.72218 333 ft 16 kts
2026-04-26 08:57 41.25914 28.72239 333 ft 17 kts
2026-04-26 08:58 41.26034 28.72261 333 ft 17 kts
2026-04-26 08:58 41.26154 28.72283 333 ft 17 kts 20°
2026-04-26 08:58 41.26199 28.72408 333 ft 15 kts 89°
2026-04-26 08:58 41.26225 28.72516 333 ft 11 kts 27°
2026-04-26 08:59 41.26308 28.72523 333 ft 12 kts 359°
2026-04-26 08:59 41.26473 28.72518 333 ft 53 kts 359°
2026-04-26 08:59 41.27092 28.72502 333 ft 121 kts 360°
2026-04-26 08:59 41.28120 28.72486 334 ft 174 kts 358°
2026-04-26 09:00 41.29398 28.72437 754 ft 184 kts 356°
2026-04-26 09:00 41.30647 28.72321 1497 ft 180 kts 356°
2026-04-26 09:00 41.31858 28.72352 2213 ft 178 kts
2026-04-26 09:00 41.33138 28.72422 2620 ft 192 kts
2026-04-26 09:01 41.34520 28.72480 2990 ft 208 kts
2026-04-26 09:01 41.36033 28.72527 3355 ft 226 kts 360°
2026-04-26 09:01 41.37685 28.72470 3684 ft 247 kts 351°
2026-04-26 09:01 41.39370 28.71863 4143 ft 260 kts 336°
2026-04-26 09:02 41.41026 28.70850 4872 ft 264 kts 333°
2026-04-26 09:02 41.42676 28.69780 5699 ft 265 kts 332°
2026-04-26 09:02 41.44335 28.68700 6548 ft 267 kts 332°
2026-04-26 09:02 41.46001 28.67621 7292 ft 270 kts 332°
2026-04-26 09:03 41.47689 28.66533 8006 ft 273 kts 332°
2026-04-26 09:03 41.49382 28.65446 8705 ft 276 kts 332°
2026-04-26 09:03 41.51131 28.64325 9395 ft 279 kts 332°
2026-04-26 09:03 41.52880 28.63204 10109 ft 281 kts 332°
2026-04-26 09:04 41.54665 28.62057 10619 ft 292 kts 332°
2026-04-26 09:04 41.56485 28.60779 10914 ft 306 kts 326°
2026-04-26 09:04 41.58216 28.59064 11366 ft 314 kts 317°
2026-04-26 09:04 41.59755 28.57004 12000 ft 315 kts 311°
2026-04-26 09:05 41.61232 28.54843 12614 ft 318 kts 311°
2026-04-26 09:05 41.62725 28.52635 13209 ft 322 kts 311°
2026-04-26 09:05 41.64231 28.50411 13794 ft 325 kts 311°
2026-04-26 09:05 41.65745 28.48156 14384 ft 327 kts 309°
2026-04-26 09:06 41.67091 28.45703 14957 ft 330 kts 302°
2026-04-26 09:06 41.68188 28.43007 15505 ft 332 kts 295°
2026-04-26 09:06 41.69132 28.40202 16051 ft 335 kts 294°
2026-04-26 09:06 41.70063 28.37328 16599 ft 337 kts 294°
2026-04-26 09:07 41.70994 28.34447 17112 ft 341 kts 293°
2026-04-26 09:07 41.71930 28.31559 17598 ft 344 kts 293°
2026-04-26 09:07 41.72891 28.28602 18126 ft 346 kts 293°
2026-04-26 09:07 41.73853 28.25643 18627 ft 348 kts 293°
2026-04-26 09:08 41.74812 28.22691 19107 ft 351 kts 293°
2026-04-26 09:08 41.75790 28.19678 19580 ft 354 kts 294°
2026-04-26 09:08 41.76765 28.16673 20040 ft 356 kts 294°
2026-04-26 09:08 41.77750 28.13638 20489 ft 358 kts 294°
2026-04-26 09:09 41.78800 28.10580 20915 ft 361 kts 297°
2026-04-26 09:09 41.80022 28.07683 21338 ft 363 kts 302°
2026-04-26 09:09 41.81456 28.04882 21767 ft 366 kts 306°
2026-04-26 09:09 41.82981 28.02147 22182 ft 368 kts 307°
2026-04-26 09:10 41.84537 27.99389 22600 ft 370 kts 307°
2026-04-26 09:10 41.86079 27.96655 22991 ft 373 kts 307°
2026-04-26 09:10 41.87645 27.93871 23393 ft 375 kts 307°
2026-04-26 09:10 41.89200 27.91098 23805 ft 376 kts 307°
2026-04-26 09:11 41.90780 27.88275 24222 ft 378 kts 307°
2026-04-26 09:11 41.92353 27.85458 24601 ft 380 kts 307°
2026-04-26 09:11 41.93946 27.82605 24979 ft 381 kts 307°
2026-04-26 09:11 41.95545 27.79778 25361 ft 383 kts 308°
2026-04-26 09:12 41.97243 27.77062 25719 ft 385 kts 311°
2026-04-26 09:12 41.99072 27.74446 26053 ft 387 kts 314°
2026-04-26 09:12 42.00972 27.71841 26395 ft 388 kts 314°
2026-04-26 09:12 42.02875 27.69246 26743 ft 390 kts 314°
2026-04-26 09:13 42.04765 27.66666 27072 ft 391 kts 314°
2026-04-26 09:13 42.06668 27.64064 27380 ft 393 kts 314°
2026-04-26 09:13 42.08586 27.61436 27692 ft 395 kts 314°
2026-04-26 09:13 42.10505 27.58803 28000 ft 396 kts 314°
2026-04-26 09:14 42.12442 27.56142 28320 ft 398 kts 314°
2026-04-26 09:14 42.14384 27.53471 28648 ft 399 kts 314°
2026-04-26 09:14 42.16314 27.50814 28947 ft 400 kts 314°
2026-04-26 09:14 42.18254 27.48142 29225 ft 402 kts 314°
2026-04-26 09:15 42.20226 27.45424 29500 ft 404 kts 314°
2026-04-26 09:15 42.22190 27.42713 29776 ft 406 kts 314°
2026-04-26 09:15 42.24150 27.40007 30049 ft 407 kts 314°
2026-04-26 09:15 42.26124 27.37276 30330 ft 408 kts 314°
2026-04-26 09:16 42.28110 27.34525 30585 ft 410 kts 313°
2026-04-26 09:16 42.30097 27.31771 30837 ft 412 kts 313°
2026-04-26 09:16 42.32108 27.28981 31111 ft 413 kts 313°
2026-04-26 09:16 42.34084 27.26236 31388 ft 414 kts 313°
2026-04-26 09:17 42.36098 27.23437 31653 ft 415 kts 313°
2026-04-26 09:17 42.38108 27.20641 31912 ft 416 kts 313°
2026-04-26 09:17 42.40131 27.17825 32154 ft 417 kts 313°
2026-04-26 09:17 42.42134 27.15032 32434 ft 417 kts 313°
2026-04-26 09:18 42.44142 27.12231 32775 ft 415 kts 313°
2026-04-26 09:18 42.46140 27.09440 33114 ft 414 kts 313°
2026-04-26 09:18 42.48135 27.06650 33431 ft 413 kts 313°
2026-04-26 09:18 42.50131 27.03857 33753 ft 412 kts 313°
2026-04-26 09:19 42.52107 27.01087 34069 ft 410 kts 313°
2026-04-26 09:19 42.54090 26.98307 34361 ft 409 kts 313°
2026-04-26 09:19 42.56065 26.95535 34638 ft 409 kts 314°
2026-04-26 09:19 42.58036 26.92766 34880 ft 410 kts 313°
2026-04-26 09:20 42.60016 26.89981 35092 ft 411 kts 313°
2026-04-26 09:20 42.63971 26.84409 35336 ft 412 kts 313°
2026-04-26 09:20 42.65961 26.81602 35507 ft 413 kts 313°
2026-04-26 09:21 42.67951 26.78792 35695 ft 413 kts 313°
2026-04-26 09:21 42.69935 26.75987 35872 ft 413 kts 313°
2026-04-26 09:21 42.71924 26.73171 36232 ft 414 kts 313°
2026-04-26 09:21 42.73917 26.70347 36066 ft 414 kts 313°
2026-04-26 09:22 42.75891 26.67544 36015 ft 413 kts 313°
2026-04-26 09:22 42.79849 26.61921 35989 ft 413 kts 313°
2026-04-26 09:23 42.83895 26.56418 35989 ft 413 kts 315°
2026-04-26 09:23 42.88023 26.50990 35876 ft 413 kts 315°
2026-04-26 09:24 42.92140 26.45557 35951 ft 413 kts 315°
2026-04-26 09:24 42.94197 26.42836 36112 ft 413 kts 315°
2026-04-26 09:24 42.96269 26.40092 36028 ft 412 kts 315°
2026-04-26 09:25 43.00386 26.34630 35829 ft 412 kts 314°
2026-04-26 09:25 43.04474 26.29193 35931 ft 413 kts 314°
2026-04-26 09:26 43.08589 26.23710 35976 ft 414 kts 314°
2026-04-26 09:26 43.12709 26.18209 35980 ft 414 kts 314°
2026-04-26 09:26 43.14745 26.15486 36091 ft 413 kts 314°
2026-04-26 09:27 43.16797 26.12739 36028 ft 412 kts 314°
2026-04-26 09:27 43.20899 26.07239 35983 ft 412 kts 314°
2026-04-26 09:27 43.22921 26.04526 35736 ft 412 kts 314°
2026-04-26 09:28 43.24970 26.01771 35843 ft 413 kts 314°
2026-04-26 09:28 43.29058 25.96272 35942 ft 413 kts 314°
2026-04-26 09:29 43.33152 25.90750 35967 ft 413 kts 314°
2026-04-26 09:29 43.37240 25.85225 35963 ft 413 kts 314°
2026-04-26 09:30 43.41297 25.79732 36047 ft 412 kts 314°
2026-04-26 09:30 43.45372 25.74203 35979 ft 412 kts 314°
2026-04-26 09:30 43.47417 25.71425 35795 ft 412 kts 314°
2026-04-26 09:31 43.49459 25.68648 35893 ft 413 kts 314°
2026-04-26 09:31 43.53517 25.63121 35948 ft 413 kts 314°
2026-04-26 09:32 43.57603 25.57544 35952 ft 413 kts 314°
2026-04-26 09:32 43.61669 25.51983 35953 ft 413 kts 314°
2026-04-26 09:33 43.65763 25.46374 35951 ft 413 kts 314°
2026-04-26 09:33 43.69822 25.40801 35949 ft 413 kts 314°
2026-04-26 09:34 43.73880 25.35215 35944 ft 413 kts 314°
2026-04-26 09:34 43.77948 25.29607 35943 ft 413 kts 313°
2026-04-26 09:35 43.81999 25.24011 35938 ft 413 kts 313°
2026-04-26 09:35 43.86056 25.18393 35935 ft 413 kts 313°
2026-04-26 09:36 43.90105 25.12778 35930 ft 413 kts 313°
2026-04-26 09:36 43.94161 25.07141 35938 ft 413 kts 313°
2026-04-26 09:37 43.98199 25.01516 35927 ft 413 kts 313°
2026-04-26 09:37 44.02253 24.95856 35931 ft 413 kts 313°
2026-04-26 09:38 44.06286 24.90215 35933 ft 414 kts 313°
2026-04-26 09:38 44.10343 24.84529 35936 ft 415 kts 314°
2026-04-26 09:39 44.14406 24.78824 35923 ft 414 kts 313°
2026-04-26 09:39 44.18424 24.73171 35934 ft 414 kts 314°
2026-04-26 09:40 44.22475 24.67457 35930 ft 414 kts 314°
2026-04-26 09:40 44.24503 24.64593 36099 ft 414 kts 314°
2026-04-26 09:40 44.26503 24.61764 35994 ft 413 kts 314°
2026-04-26 09:41 44.30528 24.56065 35948 ft 414 kts 314°
2026-04-26 09:41 44.34549 24.50360 35937 ft 414 kts 314°
2026-04-26 09:42 44.38585 24.44622 35928 ft 414 kts 314°
2026-04-26 09:42 44.42585 24.38919 35930 ft 414 kts 314°
2026-04-26 09:43 44.46630 24.33144 35928 ft 415 kts 314°
2026-04-26 09:43 44.50655 24.27385 35929 ft 416 kts 314°
2026-04-26 09:44 44.54685 24.21607 35935 ft 416 kts 314°
2026-04-26 09:44 44.58724 24.15803 35920 ft 416 kts 314°
2026-04-26 09:45 44.62752 24.10002 35938 ft 417 kts 314°
2026-04-26 09:45 44.66784 24.04182 35930 ft 417 kts 314°
2026-04-26 09:46 44.70822 23.98346 35935 ft 417 kts 314°
2026-04-26 09:46 44.74840 23.92522 35940 ft 417 kts 314°
2026-04-26 09:47 44.78879 23.86657 35937 ft 418 kts 314°
2026-04-26 09:47 44.82899 23.80806 35942 ft 417 kts 314°
2026-04-26 09:48 44.86930 23.74927 35942 ft 417 kts 314°
2026-04-26 09:48 44.90946 23.69057 35945 ft 417 kts 314°
2026-04-26 09:49 44.94943 23.63203 35955 ft 417 kts 315°
2026-04-26 09:49 44.98964 23.57300 35952 ft 418 kts 315°
2026-04-26 09:50 45.02994 23.51372 35955 ft 417 kts 315°
2026-04-26 09:50 45.06992 23.45478 35965 ft 416 kts 315°
2026-04-26 09:51 45.10975 23.39595 35963 ft 414 kts 315°
2026-04-26 09:51 45.14943 23.33718 35975 ft 414 kts 314°
2026-04-26 09:52 45.18930 23.27805 35977 ft 414 kts 314°
2026-04-26 09:52 45.24856 23.18988 35975 ft 413 kts 314°
2026-04-26 09:53 45.28786 23.13126 35979 ft 412 kts 314°
2026-04-26 09:53 45.32709 23.07257 35981 ft 411 kts 314°
2026-04-26 09:54 45.36628 23.01389 35980 ft 411 kts 314°
2026-04-26 09:54 45.40563 22.95479 35981 ft 410 kts 314°
2026-04-26 09:55 45.44464 22.89606 35989 ft 410 kts 314°
2026-04-26 09:55 45.48355 22.83740 35989 ft 410 kts 314°
2026-04-26 09:56 45.52277 22.77816 35993 ft 409 kts 314°
2026-04-26 09:56 45.56154 22.71943 35997 ft 409 kts 314°
2026-04-26 09:57 45.60058 22.66017 35995 ft 409 kts 314°
2026-04-26 09:57 45.63940 22.60110 36002 ft 409 kts 314°
2026-04-26 09:58 45.67818 22.54199 36005 ft 409 kts 314°
2026-04-26 09:58 45.71684 22.48295 36009 ft 409 kts 314°
2026-04-26 09:59 45.75552 22.42371 36009 ft 409 kts 314°
2026-04-26 09:59 45.79422 22.36431 36010 ft 408 kts 314°
2026-04-26 10:00 45.83277 22.30503 36009 ft 408 kts 313°
2026-04-26 10:00 45.87145 22.24541 36011 ft 409 kts 313°
2026-04-26 10:01 45.91023 22.18551 36007 ft 409 kts 313°
2026-04-26 10:01 45.94879 22.12583 36010 ft 409 kts 313°
2026-04-26 10:02 45.98723 22.06618 36009 ft 408 kts 313°
2026-04-26 10:02 46.02568 22.00640 36011 ft 409 kts 313°
2026-04-26 10:03 46.06422 21.94633 36022 ft 409 kts 313°
2026-04-26 10:03 46.10276 21.88614 36028 ft 407 kts 313°
2026-04-26 10:04 46.14107 21.82617 36029 ft 407 kts 313°
2026-04-26 10:04 46.17924 21.76627 36034 ft 406 kts 313°
2026-04-26 10:05 46.21724 21.70652 36039 ft 406 kts 313°
2026-04-26 10:05 46.25538 21.64643 36038 ft 406 kts 313°
2026-04-26 10:06 46.29320 21.58666 36039 ft 406 kts 313°
2026-04-26 10:06 46.33118 21.52654 36043 ft 405 kts 313°
2026-04-26 10:07 46.36895 21.46664 36042 ft 405 kts 313°
2026-04-26 10:07 46.40667 21.40663 36047 ft 404 kts 313°
2026-04-26 10:08 46.44419 21.34676 36048 ft 402 kts 313°
2026-04-26 10:08 46.48199 21.28665 36048 ft 402 kts 314°
2026-04-26 10:09 46.52231 21.23062 36056 ft 401 kts 318°
2026-04-26 10:09 46.56355 21.17693 36056 ft 401 kts 318°
2026-04-26 10:10 46.60501 21.12291 36060 ft 402 kts 318°
2026-04-26 10:10 46.64634 21.06889 36057 ft 400 kts 318°
2026-04-26 10:11 46.68774 21.01461 36059 ft 399 kts 318°
2026-04-26 10:11 46.72875 20.96080 35940 ft 399 kts 318°
2026-04-26 10:12 46.76978 20.90682 36037 ft 399 kts 318°
2026-04-26 10:12 46.81078 20.85275 36053 ft 399 kts 318°
2026-04-26 10:13 46.85162 20.79876 36055 ft 398 kts 317°
2026-04-26 10:13 46.89253 20.74454 36056 ft 397 kts 318°
2026-04-26 10:14 46.93333 20.69037 36058 ft 398 kts 317°
2026-04-26 10:14 46.97418 20.63603 36060 ft 396 kts 318°
2026-04-26 10:15 47.01475 20.58191 36056 ft 396 kts 318°
2026-04-26 10:15 47.03498 20.55490 36335 ft 396 kts 318°
2026-04-26 10:15 47.05534 20.52769 36152 ft 394 kts 318°
2026-04-26 10:16 47.09575 20.47360 36073 ft 395 kts 318°
2026-04-26 10:16 47.13624 20.41926 36062 ft 394 kts 317°
2026-04-26 10:17 47.17657 20.36504 36061 ft 394 kts 317°
2026-04-26 10:17 47.21688 20.31070 36063 ft 394 kts 317°
2026-04-26 10:18 47.25708 20.25639 36063 ft 394 kts 317°
2026-04-26 10:18 47.29738 20.20185 36067 ft 395 kts 317°
2026-04-26 10:19 47.33742 20.14752 36074 ft 395 kts 317°
2026-04-26 10:19 47.37781 20.09259 36078 ft 394 kts 316°
2026-04-26 10:20 47.41130 20.04699 36080 ft 394 kts 317°
2026-04-26 10:20 47.45806 19.98315 36085 ft 394 kts 316°
2026-04-26 10:21 47.49815 19.92830 36084 ft 394 kts 316°
2026-04-26 10:21 47.53825 19.87330 36081 ft 394 kts 317°
2026-04-26 10:22 47.57825 19.81830 36084 ft 394 kts 317°
2026-04-26 10:22 47.61834 19.76308 36080 ft 394 kts 317°
2026-04-26 10:23 47.65842 19.70775 36082 ft 394 kts 317°
2026-04-26 10:23 47.69830 19.65260 36087 ft 394 kts 316°
2026-04-26 10:24 47.73819 19.59729 36090 ft 394 kts 316°
2026-04-26 10:24 47.77827 19.54159 36091 ft 394 kts 316°
2026-04-26 10:25 47.81809 19.48612 36096 ft 394 kts 316°
2026-04-26 10:25 47.85806 19.43032 36095 ft 395 kts 316°
2026-04-26 10:26 47.89805 19.37435 36099 ft 394 kts 316°
2026-04-26 10:26 47.93770 19.31872 36100 ft 395 kts 316°
2026-04-26 10:27 47.97764 19.26252 36104 ft 395 kts 316°
2026-04-26 10:27 48.01758 19.20623 36111 ft 396 kts 316°
2026-04-26 10:28 48.05731 19.14932 36109 ft 396 kts 314°
2026-04-26 10:28 48.09367 19.08790 36099 ft 396 kts 309°
2026-04-26 10:29 48.12755 19.02315 36112 ft 397 kts 308°
2026-04-26 10:29 48.16123 18.95812 36107 ft 397 kts 308°
2026-04-26 10:30 48.19489 18.89293 36122 ft 396 kts 308°
2026-04-26 10:30 48.22854 18.82758 36119 ft 396 kts 308°
2026-04-26 10:31 48.26218 18.76209 36138 ft 397 kts 308°
2026-04-26 10:31 48.29564 18.69677 36119 ft 397 kts 308°
2026-04-26 10:32 48.32904 18.63148 36130 ft 398 kts 308°
2026-04-26 10:32 48.36260 18.56565 36140 ft 398 kts 308°
2026-04-26 10:33 48.39625 18.49948 36137 ft 398 kts 308°
2026-04-26 10:33 48.42961 18.43377 36137 ft 398 kts 308°
2026-04-26 10:34 48.46321 18.36744 36142 ft 398 kts 308°
2026-04-26 10:34 48.49656 18.30138 36155 ft 398 kts 307°
2026-04-26 10:35 48.52997 18.23505 36161 ft 399 kts 307°
2026-04-26 10:35 48.56346 18.16839 36163 ft 398 kts 307°
2026-04-26 10:36 48.59675 18.10198 36170 ft 399 kts 307°
2026-04-26 10:36 48.63019 18.03512 36177 ft 399 kts 307°
2026-04-26 10:37 48.66336 17.96862 36181 ft 399 kts 307°
2026-04-26 10:37 48.69684 17.90131 36190 ft 400 kts 307°
2026-04-26 10:38 48.73000 17.83450 36181 ft 399 kts 307°
2026-04-26 10:38 48.76306 17.76771 36189 ft 399 kts 307°
2026-04-26 10:39 48.79642 17.70016 36203 ft 400 kts 307°
2026-04-26 10:39 48.82946 17.63307 36200 ft 400 kts 307°
2026-04-26 10:40 48.86269 17.56541 36196 ft 400 kts 307°
2026-04-26 10:40 48.89575 17.49791 36199 ft 400 kts 307°
2026-04-26 10:41 48.92878 17.43030 36200 ft 400 kts 307°
2026-04-26 10:41 48.96172 17.36265 36209 ft 400 kts 307°
2026-04-26 10:42 48.99498 17.29441 36201 ft 400 kts 307°
2026-04-26 10:42 49.03070 17.23037 36210 ft 400 kts 312°
2026-04-26 10:43 49.07068 17.17075 36206 ft 401 kts 315°
2026-04-26 10:43 49.11111 17.11300 36211 ft 400 kts 316°
2026-04-26 10:44 49.15162 17.05509 36214 ft 401 kts 315°
2026-04-26 10:44 49.19235 16.99671 36217 ft 400 kts 316°
2026-04-26 10:45 49.23289 16.93844 36219 ft 400 kts 316°
2026-04-26 10:45 49.27320 16.88035 36211 ft 400 kts 316°
2026-04-26 10:46 49.31352 16.82215 36214 ft 399 kts 316°
2026-04-26 10:46 49.35392 16.76366 36212 ft 401 kts 316°
2026-04-26 10:47 49.39418 16.70530 36208 ft 401 kts 316°
2026-04-26 10:47 49.43460 16.64650 36201 ft 401 kts 316°
2026-04-26 10:48 49.47480 16.58791 36198 ft 400 kts 316°
2026-04-26 10:48 49.51486 16.52937 36196 ft 399 kts 316°
2026-04-26 10:49 49.55514 16.47038 36202 ft 400 kts 316°
2026-04-26 10:49 49.59533 16.41138 36203 ft 400 kts 316°
2026-04-26 10:50 49.62857 16.36246 36203 ft 400 kts 316°
2026-04-26 10:50 49.67557 16.29312 36202 ft 401 kts 315°
2026-04-26 10:51 49.73572 16.20411 36208 ft 401 kts 315°
2026-04-26 10:52 49.77573 16.14475 36204 ft 401 kts 315°
2026-04-26 10:52 49.81584 16.08509 36212 ft 401 kts 315°
2026-04-26 10:53 49.85581 16.02547 36226 ft 401 kts 315°
2026-04-26 10:53 49.89584 15.96565 36242 ft 401 kts 315°
2026-04-26 10:54 49.95594 15.87553 36250 ft 402 kts 315°
2026-04-26 10:54 49.99611 15.81512 36252 ft 401 kts 315°
2026-04-26 10:55 50.03586 15.75516 36258 ft 400 kts 315°
2026-04-26 10:55 50.06916 15.70484 36257 ft 401 kts 315°
2026-04-26 10:56 50.11548 15.63467 36258 ft 402 kts 315°
2026-04-26 10:56 50.15534 15.57413 36251 ft 402 kts 315°
2026-04-26 10:57 50.19523 15.51341 36250 ft 402 kts 315°
2026-04-26 10:57 50.23517 15.45243 36246 ft 402 kts 315°
2026-04-26 10:58 50.27494 15.39156 36249 ft 402 kts 315°
2026-04-26 10:58 50.31464 15.33066 36253 ft 402 kts 314°
2026-04-26 10:59 50.35452 15.26935 36256 ft 402 kts 314°
2026-04-26 10:59 50.39444 15.20780 36259 ft 402 kts 314°
2026-04-26 11:00 50.43400 15.14664 36258 ft 402 kts 314°
2026-04-26 11:00 50.47376 15.08504 36259 ft 402 kts 314°
2026-04-26 11:01 50.51340 15.02350 36260 ft 403 kts 314°
2026-04-26 11:01 50.55323 14.96148 36259 ft 404 kts 314°
2026-04-26 11:02 50.59308 14.89924 36255 ft 403 kts 314°
2026-04-26 11:02 50.63261 14.83739 36254 ft 403 kts 314°
2026-04-26 11:03 50.67224 14.77519 36252 ft 404 kts 314°
2026-04-26 11:03 50.71185 14.71285 36255 ft 403 kts 314°
2026-04-26 11:04 50.75138 14.65049 36255 ft 405 kts 314°
2026-04-26 11:04 50.79093 14.58791 36257 ft 405 kts 314°
2026-04-26 11:05 50.83081 14.52462 36257 ft 405 kts 314°
2026-04-26 11:05 50.87036 14.46172 36257 ft 405 kts 314°
2026-04-26 11:06 50.90294 14.40861 36261 ft 405 kts 311°
2026-04-26 11:06 50.94395 14.32770 36264 ft 404 kts 304°
2026-04-26 11:07 50.97452 14.25354 36263 ft 405 kts 302°
2026-04-26 11:07 51.00464 14.17781 36263 ft 406 kts 302°
2026-04-26 11:08 51.03472 14.10186 36274 ft 407 kts 302°
2026-04-26 11:08 51.06456 14.02627 36080 ft 407 kts 302°
2026-04-26 11:09 51.07964 13.98798 36204 ft 408 kts 302°
2026-04-26 11:09 51.09463 13.94988 36253 ft 409 kts 302°
2026-04-26 11:09 51.12472 13.87323 36281 ft 409 kts 302°
2026-04-26 11:10 51.15461 13.79691 36433 ft 409 kts 301°
2026-04-26 11:10 51.18443 13.72048 36311 ft 408 kts 301°
2026-04-26 11:11 51.21424 13.64384 36101 ft 408 kts 301°
2026-04-26 11:11 51.22920 13.60532 36212 ft 409 kts 301°
2026-04-26 11:11 51.24416 13.56673 36257 ft 410 kts 301°
2026-04-26 11:12 51.27403 13.48950 36286 ft 410 kts 301°
2026-04-26 11:12 51.30378 13.41233 36292 ft 410 kts 301°
2026-04-26 11:13 51.33366 13.33459 36293 ft 411 kts 301°
2026-04-26 11:13 51.36340 13.25698 36296 ft 411 kts 301°
2026-04-26 11:14 51.39305 13.17941 36299 ft 412 kts 300°
2026-04-26 11:14 51.41777 13.11455 36310 ft 412 kts 300°
2026-04-26 11:15 51.45244 13.02329 36316 ft 412 kts 300°
2026-04-26 11:15 51.48224 12.94458 36306 ft 413 kts 300°
2026-04-26 11:16 51.51169 12.86655 36303 ft 412 kts 300°
2026-04-26 11:16 51.54127 12.78794 36303 ft 413 kts 300°
2026-04-26 11:17 51.57075 12.70939 36305 ft 413 kts 300°
2026-04-26 11:17 51.60023 12.63058 36306 ft 413 kts 300°
2026-04-26 11:18 51.62968 12.55156 36307 ft 414 kts 300°
2026-04-26 11:18 51.65928 12.47194 36306 ft 414 kts 300°
2026-04-26 11:19 51.68883 12.39215 36308 ft 415 kts 300°
2026-04-26 11:19 51.71830 12.31241 36309 ft 414 kts 299°
2026-04-26 11:20 51.74257 12.24650 36310 ft 415 kts 299°
2026-04-26 11:20 51.77693 12.15293 36310 ft 415 kts 299°
2026-04-26 11:21 51.80615 12.07310 36314 ft 416 kts 299°
2026-04-26 11:21 51.83554 11.99249 36314 ft 416 kts 299°
2026-04-26 11:22 51.86472 11.91224 36312 ft 416 kts 299°
2026-04-26 11:22 51.89386 11.83187 36312 ft 416 kts 299°
2026-04-26 11:23 51.92304 11.75109 36314 ft 417 kts 299°
2026-04-26 11:23 51.95213 11.67032 36315 ft 417 kts 299°
2026-04-26 11:24 51.98128 11.58913 36316 ft 417 kts 299°
2026-04-26 11:24 52.01036 11.50787 36312 ft 417 kts 299°
2026-04-26 11:25 52.03937 11.42652 36308 ft 417 kts 299°
2026-04-26 11:25 52.06830 11.34519 36306 ft 417 kts 298°
2026-04-26 11:26 52.09710 11.26390 36298 ft 417 kts 298°
2026-04-26 11:26 52.12612 11.18175 36296 ft 418 kts 298°
2026-04-26 11:27 52.15493 11.09992 36299 ft 419 kts 298°
2026-04-26 11:27 52.18373 11.01783 36304 ft 420 kts 298°
2026-04-26 11:28 52.21265 10.93516 36305 ft 419 kts 298°
2026-04-26 11:28 52.24144 10.85257 36307 ft 420 kts 298°
2026-04-26 11:29 52.27013 10.77001 36308 ft 420 kts 298°
2026-04-26 11:29 52.29869 10.68755 36308 ft 419 kts 298°
2026-04-26 11:30 52.32243 10.61882 36312 ft 419 kts 298°
2026-04-26 11:30 52.35573 10.52206 36316 ft 419 kts 298°
2026-04-26 11:31 52.38405 10.43944 36316 ft 419 kts 298°
2026-04-26 11:31 52.41248 10.35628 36316 ft 419 kts 298°
2026-04-26 11:32 52.44073 10.27333 36313 ft 419 kts 297°
2026-04-26 11:32 52.46908 10.18980 36311 ft 419 kts 298°
2026-04-26 11:33 52.49720 10.10673 36313 ft 418 kts 298°
2026-04-26 11:33 52.52538 10.02316 36319 ft 419 kts 298°
2026-04-26 11:34 52.55339 9.93984 36321 ft 419 kts 298°
2026-04-26 11:34 52.58144 9.85610 36319 ft 420 kts 298°
2026-04-26 11:35 52.60950 9.77205 36318 ft 419 kts 298°
2026-04-26 11:35 52.63277 9.70212 36319 ft 419 kts 298°
2026-04-26 11:36 52.66510 9.60464 36316 ft 419 kts 298°
2026-04-26 11:36 52.69300 9.52023 36313 ft 418 kts 298°
2026-04-26 11:37 52.72051 9.43671 36316 ft 418 kts 298°
2026-04-26 11:37 52.74822 9.35224 36320 ft 419 kts 297°
2026-04-26 11:38 52.77575 9.26808 36316 ft 419 kts 297°
2026-04-26 11:38 52.80331 9.18351 36320 ft 419 kts 297°
2026-04-26 11:39 52.83078 9.09895 36319 ft 419 kts 297°
2026-04-26 11:39 52.85832 9.01388 36321 ft 419 kts 297°
2026-04-26 11:40 52.88574 8.92889 36317 ft 419 kts 297°
2026-04-26 11:40 52.91301 8.84407 36318 ft 419 kts 297°
2026-04-26 11:42 53.02142 8.50383 36314 ft 418 kts 297°
2026-04-26 11:43 53.04840 8.41844 36313 ft 418 kts 297°
2026-04-26 11:43 53.07536 8.33279 36311 ft 418 kts 296°
2026-04-26 11:44 53.10228 8.24698 36315 ft 418 kts 296°
2026-04-26 11:44 53.12911 8.16113 36315 ft 419 kts 296°
2026-04-26 11:45 53.15573 8.07563 36317 ft 419 kts 296°
2026-04-26 11:45 53.18251 7.98934 36319 ft 419 kts 296°
2026-04-26 11:46 53.20899 7.90371 36321 ft 419 kts 296°
2026-04-26 11:46 53.23553 7.81757 36322 ft 418 kts 296°
2026-04-26 11:47 53.26202 7.73135 36323 ft 417 kts 296°
2026-04-26 11:47 53.28817 7.64585 36323 ft 417 kts 296°
2026-04-26 11:48 53.31443 7.55968 36324 ft 417 kts 296°
2026-04-26 11:48 53.34072 7.47313 36326 ft 417 kts 296°
2026-04-26 11:49 53.36671 7.38725 36329 ft 417 kts 296°
2026-04-26 11:49 53.39292 7.30030 36334 ft 417 kts 296°
2026-04-26 11:50 53.41875 7.21436 36340 ft 417 kts 295°
2026-04-26 11:50 53.44471 7.12768 36345 ft 416 kts 295°
2026-04-26 11:51 53.47041 7.04154 36348 ft 416 kts 295°
2026-04-26 11:51 53.49620 6.95475 36347 ft 415 kts 295°
2026-04-26 11:52 53.51749 6.88285 36347 ft 415 kts 296°
2026-04-26 11:52 53.54710 6.78249 36348 ft 415 kts 296°
2026-04-26 11:53 53.57250 6.69612 36348 ft 415 kts 296°
2026-04-26 11:54 53.61061 6.56592 36354 ft 415 kts 296°
2026-04-26 11:54 53.63607 6.47855 36355 ft 416 kts 296°
2026-04-26 11:55 53.66145 6.39104 36359 ft 415 kts 296°
2026-04-26 11:55 53.68669 6.30375 36359 ft 414 kts 295°
2026-04-26 11:56 53.71165 6.21711 36358 ft 413 kts 295°
2026-04-26 11:56 53.73665 6.13004 36364 ft 413 kts 295°
2026-04-26 11:57 53.76157 6.04289 36368 ft 413 kts 295°
2026-04-26 11:57 53.78654 5.95525 36368 ft 413 kts 295°
2026-04-26 11:58 53.81124 5.86813 36366 ft 413 kts 295°
2026-04-26 11:58 53.83599 5.78058 36366 ft 414 kts 295°
2026-04-26 11:59 53.86066 5.69303 36363 ft 414 kts 295°
2026-04-26 11:59 53.88530 5.60524 36361 ft 414 kts 295°
2026-04-26 12:00 53.90992 5.51718 36362 ft 413 kts 295°
2026-04-26 12:00 53.93436 5.42943 36362 ft 413 kts 295°
2026-04-26 12:01 53.95863 5.34198 36366 ft 414 kts 294°
2026-04-26 12:01 53.98310 5.25341 36370 ft 415 kts 294°
2026-04-26 12:02 54.00740 5.16512 36376 ft 415 kts 294°
2026-04-26 12:02 54.03167 5.07664 36373 ft 415 kts 295°
2026-04-26 12:03 54.05594 4.98780 36381 ft 415 kts 294°
2026-04-26 12:03 54.08020 4.89864 36390 ft 414 kts 294°
2026-04-26 12:04 54.10418 4.81015 36388 ft 414 kts 294°
2026-04-26 12:04 54.12810 4.72151 36389 ft 413 kts 294°
2026-04-26 12:05 54.15195 4.63279 36386 ft 413 kts 295°
2026-04-26 12:05 54.17577 4.54381 36386 ft 413 kts 295°
2026-04-26 12:06 54.19939 4.45510 36383 ft 413 kts 295°
2026-04-26 12:06 54.22315 4.36565 36381 ft 413 kts 295°
2026-04-26 12:07 54.24424 4.27489 36376 ft 413 kts 289°
2026-04-26 12:07 54.26076 4.18141 36374 ft 413 kts 287°
2026-04-26 12:08 54.27661 4.08755 36372 ft 412 kts 287°
2026-04-26 12:08 54.29235 3.99378 36371 ft 413 kts 287°
2026-04-26 12:09 54.30812 3.89928 36370 ft 413 kts 287°
2026-04-26 12:09 54.32374 3.80522 36368 ft 413 kts 287°
2026-04-26 12:10 54.33929 3.71106 36364 ft 413 kts 287°
2026-04-26 12:10 54.35478 3.61674 36357 ft 413 kts 287°
2026-04-26 12:11 54.37019 3.52243 36354 ft 413 kts 287°
2026-04-26 12:11 54.38548 3.42828 36352 ft 412 kts 287°
2026-04-26 12:12 54.40078 3.33357 36355 ft 412 kts 286°
2026-04-26 12:12 54.41598 3.23895 36354 ft 412 kts 286°
2026-04-26 12:13 54.43105 3.14454 36359 ft 411 kts 286°
2026-04-26 12:13 54.44603 3.05029 36357 ft 411 kts 286°
2026-04-26 12:14 54.46097 2.95567 36365 ft 412 kts 286°
2026-04-26 12:14 54.47578 2.86141 36370 ft 411 kts 286°
2026-04-26 12:15 54.49053 2.76698 36374 ft 412 kts 286°
2026-04-26 12:15 54.50524 2.67226 36369 ft 412 kts 286°
2026-04-26 12:16 54.51996 2.57692 36370 ft 412 kts 286°
2026-04-26 12:16 54.53452 2.48197 36371 ft 412 kts 285°
2026-04-26 12:17 54.54899 2.38718 36373 ft 412 kts 285°
2026-04-26 12:17 54.56345 2.29178 36366 ft 412 kts 285°
2026-04-26 12:18 54.57780 2.19668 36365 ft 412 kts 285°
2026-04-26 12:18 54.59203 2.10175 36360 ft 411 kts 285°
2026-04-26 12:19 54.60623 2.00643 36354 ft 412 kts 285°
2026-04-26 12:19 54.62033 1.91129 36353 ft 411 kts 284°
2026-04-26 12:20 54.63434 1.81619 36353 ft 411 kts 284°
2026-04-26 12:20 54.64834 1.72045 36343 ft 411 kts 284°
2026-04-26 12:21 54.66225 1.62487 36350 ft 412 kts 284°
2026-04-26 12:21 54.67599 1.52984 36343 ft 412 kts 284°
2026-04-26 12:22 54.68977 1.43395 36338 ft 412 kts 284°
2026-04-26 12:22 54.70343 1.33823 36341 ft 412 kts 284°
2026-04-26 12:23 54.71712 1.24173 36337 ft 412 kts 284°
2026-04-26 12:23 54.73063 1.14601 36331 ft 412 kts 284°
2026-04-26 12:24 54.74406 1.05020 36335 ft 412 kts 283°
2026-04-26 12:24 54.75747 0.95392 36336 ft 413 kts 283°
2026-04-26 12:25 54.77744 0.80932 36333 ft 412 kts 283°
2026-04-26 12:25 54.79065 0.71306 36330 ft 412 kts 283°
2026-04-26 12:26 54.80376 0.61678 36328 ft 413 kts 283°
2026-04-26 12:26 54.81675 0.52076 36331 ft 412 kts 283°
2026-04-26 12:27 54.82970 0.42440 36326 ft 412 kts 283°
2026-04-26 12:27 54.84264 0.32749 36322 ft 412 kts 282°
2026-04-26 12:28 54.85549 0.23069 36320 ft 412 kts 282°
2026-04-26 12:28 54.86818 0.13442 36317 ft 412 kts 282°
2026-04-26 12:29 54.88086 0.03756 36317 ft 412 kts 282°
2026-04-26 12:30 54.89970 -0.10766 36311 ft 412 kts 282°
2026-04-26 12:30 54.91211 -0.20415 36316 ft 412 kts 282°
2026-04-26 12:31 54.93072 -0.34983 36309 ft 412 kts 282°
2026-04-26 12:31 54.94297 -0.44666 36310 ft 412 kts 282°
2026-04-26 12:32 54.95513 -0.54349 36306 ft 412 kts 282°
2026-04-26 12:33 54.97322 -0.68871 36159 ft 413 kts 281°
2026-04-26 12:33 54.97928 -0.73769 35941 ft 410 kts 281°
2026-04-26 12:33 54.98521 -0.78575 35718 ft 407 kts 281°
2026-04-26 12:33 54.99106 -0.83341 35504 ft 404 kts 281°
2026-04-26 12:34 54.99690 -0.88106 35283 ft 401 kts 281°
2026-04-26 12:34 55.00261 -0.92780 35060 ft 398 kts 281°
2026-04-26 12:34 55.00833 -0.97498 34839 ft 397 kts 281°
2026-04-26 12:34 55.01401 -1.02192 34622 ft 397 kts 281°
2026-04-26 12:35 55.01963 -1.06849 34376 ft 397 kts 281°
2026-04-26 12:35 55.02528 -1.11552 34012 ft 398 kts 281°
2026-04-26 12:35 55.03095 -1.16286 33497 ft 398 kts 281°
2026-04-26 12:35 55.03658 -1.21002 32863 ft 399 kts 281°
2026-04-26 12:36 55.04214 -1.25679 32188 ft 400 kts 281°
2026-04-26 12:36 55.04769 -1.30366 31716 ft 396 kts 281°
2026-04-26 12:36 55.05320 -1.35014 31261 ft 391 kts 281°
2026-04-26 12:36 55.05865 -1.39644 30792 ft 387 kts 281°
2026-04-26 12:37 55.06395 -1.44169 30307 ft 383 kts 281°
2026-04-26 12:37 55.06920 -1.48659 29842 ft 378 kts 281°
2026-04-26 12:37 55.07443 -1.53150 29381 ft 374 kts 281°
2026-04-26 12:37 55.07949 -1.57518 28916 ft 371 kts 281°
2026-04-26 12:38 55.08456 -1.61911 28458 ft 367 kts 281°
2026-04-26 12:38 55.08959 -1.66281 27989 ft 364 kts 280°
2026-04-26 12:38 55.09452 -1.70584 27525 ft 362 kts 280°
2026-04-26 12:38 55.09935 -1.74813 27060 ft 359 kts 280°
2026-04-26 12:39 55.10419 -1.79060 26781 ft 350 kts 280°
2026-04-26 12:39 55.10885 -1.83155 26580 ft 339 kts 280°
2026-04-26 12:39 55.11330 -1.87084 26446 ft 327 kts 280°
2026-04-26 12:39 55.11776 -1.90906 26306 ft 316 kts 282°
2026-04-26 12:40 55.12408 -1.94526 26245 ft 304 kts 289°
2026-04-26 12:40 55.13246 -1.97877 25911 ft 306 kts 295°
2026-04-26 12:40 55.14279 -2.01139 25399 ft 308 kts 297°
2026-04-26 12:40 55.15335 -2.04345 24908 ft 309 kts 298°
2026-04-26 12:41 55.16408 -2.07585 24433 ft 308 kts 298°
2026-04-26 12:41 55.17480 -2.10834 23980 ft 307 kts 298°
2026-04-26 12:41 55.18532 -2.14025 23540 ft 306 kts 298°
2026-04-26 12:41 55.19594 -2.17251 23102 ft 305 kts 298°
2026-04-26 12:42 55.20641 -2.20435 22676 ft 304 kts 298°
2026-04-26 12:42 55.21690 -2.23637 22246 ft 302 kts 298°
2026-04-26 12:42 55.22721 -2.26794 21825 ft 301 kts 298°
2026-04-26 12:42 55.23755 -2.29961 21412 ft 300 kts 298°
2026-04-26 12:43 55.24786 -2.33122 20978 ft 299 kts 298°
2026-04-26 12:43 55.25817 -2.36292 20531 ft 299 kts 298°
2026-04-26 12:43 55.26835 -2.39425 20109 ft 297 kts 298°
2026-04-26 12:43 55.27851 -2.42553 19701 ft 296 kts 298°
2026-04-26 12:44 55.28859 -2.45660 19282 ft 295 kts 298°
2026-04-26 12:44 55.29867 -2.48773 18868 ft 294 kts 298°
2026-04-26 12:44 55.30880 -2.51903 18455 ft 293 kts 298°
2026-04-26 12:44 55.31874 -2.54982 18043 ft 291 kts 298°
2026-04-26 12:45 55.32866 -2.58058 17660 ft 290 kts 297°
2026-04-26 12:45 55.33849 -2.61107 17245 ft 289 kts 297°
2026-04-26 12:45 55.34832 -2.64161 16856 ft 288 kts 297°
2026-04-26 12:45 55.35820 -2.67237 16454 ft 287 kts 297°
2026-04-26 12:46 55.36780 -2.70232 16062 ft 285 kts 297°
2026-04-26 12:46 55.37750 -2.73258 15660 ft 284 kts 297°
2026-04-26 12:46 55.38722 -2.76296 15265 ft 283 kts 296°
2026-04-26 12:46 55.39677 -2.79282 14888 ft 282 kts 296°
2026-04-26 12:47 55.40635 -2.82285 14479 ft 281 kts 296°
2026-04-26 12:47 55.41577 -2.85245 14085 ft 281 kts 296°
2026-04-26 12:47 55.42535 -2.88255 13676 ft 280 kts 296°
2026-04-26 12:47 55.43480 -2.91231 13298 ft 279 kts 296°
2026-04-26 12:48 55.44412 -2.94163 12944 ft 277 kts 296°
2026-04-26 12:48 55.45352 -2.97095 12651 ft 272 kts 299°
2026-04-26 12:48 55.46614 -2.99537 12296 ft 276 kts 322°
2026-04-26 12:48 55.48362 -3.00926 11883 ft 281 kts 339°
2026-04-26 12:49 55.50254 -3.01951 11466 ft 281 kts 340°
2026-04-26 12:49 55.52088 -3.02920 11178 ft 277 kts 340°
2026-04-26 12:49 55.53925 -3.03900 10802 ft 276 kts 340°
2026-04-26 12:49 55.55757 -3.04895 10401 ft 276 kts 339°
2026-04-26 12:50 55.57589 -3.05900 10100 ft 272 kts 339°
2026-04-26 12:50 55.59390 -3.06897 9670 ft 274 kts 339°
2026-04-26 12:50 55.61188 -3.07898 9280 ft 273 kts 339°
2026-04-26 12:50 55.62986 -3.08899 8993 ft 269 kts 339°
2026-04-26 12:51 55.64774 -3.09896 8592 ft 268 kts 339°
2026-04-26 12:51 55.66531 -3.10876 8230 ft 267 kts 340°
2026-04-26 12:51 55.68303 -3.11866 7884 ft 265 kts 339°
2026-04-26 12:51 55.70054 -3.12846 7547 ft 262 kts 338°
2026-04-26 12:52 55.71596 -3.14341 7160 ft 254 kts 310°
2026-04-26 12:52 55.72374 -3.17008 7098 ft 241 kts 282°
2026-04-26 12:52 55.72776 -3.19909 7119 ft 243 kts 282°
2026-04-26 12:52 55.73199 -3.22770 7138 ft 243 kts 283°
2026-04-26 12:53 55.73643 -3.25675 7166 ft 243 kts 283°
2026-04-26 12:53 55.74089 -3.28557 7190 ft 242 kts 283°
2026-04-26 12:53 55.74538 -3.31430 7215 ft 242 kts 283°
2026-04-26 12:53 55.74990 -3.34323 7233 ft 243 kts 283°
2026-04-26 12:54 55.75437 -3.37171 7241 ft 243 kts 283°
2026-04-26 12:54 55.75890 -3.40065 7240 ft 243 kts 283°
2026-04-26 12:54 55.76346 -3.42983 6909 ft 245 kts 283°
2026-04-26 12:54 55.76799 -3.45881 6568 ft 243 kts 283°
2026-04-26 12:55 55.77244 -3.48739 6248 ft 241 kts 283°
2026-04-26 12:55 55.77685 -3.51575 5935 ft 238 kts 283°
2026-04-26 12:55 55.78123 -3.54396 5631 ft 236 kts 284°
2026-04-26 12:55 55.78556 -3.57192 5332 ft 234 kts 284°
2026-04-26 12:56 55.78980 -3.59932 5038 ft 232 kts 284°
2026-04-26 12:56 55.79407 -3.62701 4741 ft 230 kts 284°
2026-04-26 12:56 55.79824 -3.65393 4457 ft 227 kts 283°
2026-04-26 12:56 55.80242 -3.68089 4165 ft 224 kts 284°
2026-04-26 12:57 55.80931 -3.70513 3929 ft 221 kts 315°
2026-04-26 12:57 55.82286 -3.71535 3917 ft 216 kts 359°
2026-04-26 12:57 55.83672 -3.70633 3958 ft 215 kts 43°
2026-04-26 12:58 55.85201 -3.66501 3683 ft 193 kts 62°
2026-04-26 12:58 55.85837 -3.64453 3408 ft 188 kts 61°
2026-04-26 12:58 55.86474 -3.62472 3143 ft 183 kts 60°
2026-04-26 12:58 55.87109 -3.60556 2887 ft 176 kts 59°
2026-04-26 12:59 55.87728 -3.58722 2646 ft 170 kts 59°
2026-04-26 12:59 55.88321 -3.56975 2438 ft 157 kts 59°
2026-04-26 12:59 55.88871 -3.55353 2235 ft 147 kts 59°
2026-04-26 12:59 55.89381 -3.53848 2038 ft 141 kts 59°
2026-04-26 13:00 55.89886 -3.52357 1876 ft 145 kts 59°
2026-04-26 13:00 55.90428 -3.50755 1712 ft 153 kts 59°
2026-04-26 13:00 55.90965 -3.49166 1491 ft 146 kts 59°
2026-04-26 13:00 55.91469 -3.47680 1264 ft 137 kts 59°
2026-04-26 13:01 55.91959 -3.46231 1087 ft 136 kts 59°
2026-04-26 13:01 55.92450 -3.44779 911 ft 135 kts 59°
2026-04-26 13:01 55.92935 -3.43346 736 ft 135 kts 59°
2026-04-26 13:01 55.93417 -3.41921 556 ft 134 kts 59°
2026-04-26 13:02 55.93893 -3.40515 377 ft 133 kts 59°
2026-04-26 13:02 55.94368 -3.39108 198 ft 132 kts 59°
2026-04-26 13:02 55.94833 -3.37744 101 ft 117 kts 58°
2026-04-26 13:02 55.95165 -3.36765 100 ft 67 kts 58°
2026-04-26 13:03 55.95330 -3.36276 103 ft 36 kts 59°
2026-04-26 13:03 55.95453 -3.35909 101 ft 32 kts 58°
2026-04-26 13:03 55.95542 -3.35617 100 ft 20 kts 78°
2026-04-26 13:03 55.95483 -3.35424 102 ft 15 kts 143°
2026-04-26 13:04 55.95418 -3.35434 103 ft 10 kts 231°
2026-04-26 13:04 55.95376 -3.35560 103 ft 11 kts 239°
2026-04-26 13:04 55.95334 -3.35687 103 ft 12 kts 238°
2026-04-26 13:04 55.95290 -3.35817 104 ft 12 kts 238°
2026-04-26 13:05 55.95243 -3.35954 103 ft 11 kts 233°
2026-04-26 13:05 55.95171 -3.35953 103 ft 12 kts 150°
2026-04-26 13:05 55.95113 -3.35844 104 ft 12 kts 123°
2026-04-26 13:05 55.95066 -3.35797 105 ft 7 kts 198°
2026-04-26 13:06 55.95018 -3.35831 106 ft 7 kts 206°
2026-04-26 13:06 55.94967 -3.35857 106 ft 8 kts 176°
2026-04-26 13:06 55.94925 -3.35826 107 ft 5 kts 126°
2026-04-26 13:06 55.94893 -3.35812 107 ft 6 kts 205°
2026-04-26 13:07 55.94855 -3.35851 106 ft 5 kts 207°
2026-04-26 13:07 55.94844 -3.35862 107 ft 0 kts 207°